McGuire AFB, NJ

11:28 PM EDT on October 20, 2017 (GMT -0400)
McGuire Air Force Base

Weather History for KWRI - August, 2013

Change the Weather History Date:

Thursday, August 29, 2013

  Actual Average Record
Temperature  
Mean Temperature 73 °F -  
Max Temperature 81 °F 80 °F 95 °F (2010)
Min Temperature 66 °F 61 °F 55 °F (2014)
Cooling Degree Days 8    
Growing Degree Days 23 (Base 50)    
Moisture  
Dew Point 69 °F    
Average Humidity 92    
Maximum Humidity 100    
Minimum Humidity 61    
Precipitation  
Precipitation 0.00 in - - ()
Sea Level Pressure  
Sea Level Pressure 29.94 in    
Wind  
Wind Speed 6 mph (NE)    
Max Wind Speed 13 mph    
Max Gust Speed 18 mph    
Visibility 7 miles    
Events Rain    
Averages and records for this station are not official NWS values.
T = Trace of Precipitation, MM = Missing Value Source: NWS Daily Summary

Daily Weather History Graph

Daily Weather History Graph

Search for Another Location

Airport or City:

Trip Planner

Search our weather history database for the weather conditions in past years. The results will help you decide how hot, cold, wet, or windy it might be!

Date:

Astronomy

Aug. 29, 2013 Rise Set
Actual Time 6:23 AM EDT 7:34 PM EDT
Civil Twilight 5:55 AM EDT 8:02 PM EDT
Nautical Twilight 5:22 AM EDT 8:35 PM EDT
Astronomical Twilight 4:47 AM EDT 9:10 PM EDT
Moon 12:13 AM EDT (8/29) 3:00 PM EDT (8/29)
Length of Visible Light 14h 06m
Length of Day
13h 10m
Last Quarter, 38% of the Moon is Illuminated
Aug 29
Last Quarter
Sep 5
New
Sep 12
First Quarter
Sep 19
Full
Sep 26
Last Quarter

Hourly Weather History & Observations

Time (EDT) Temp. Heat Index Dew Point Humidity Pressure Visibility Wind Dir Wind Speed Gust Speed Precip Events Conditions
12:02 AM 71.6 °F - 71.6 °F 100% 29.86 in 4.0 mi East 2.3 mph - N/A Rain Light Rain
12:07 AM 71.6 °F - 71.6 °F 100% 29.86 in 4.0 mi ENE 3.5 mph - N/A   Scattered Clouds
12:09 AM 71.6 °F - 71.6 °F 100% 29.86 in 5.0 mi ENE 3.5 mph - N/A   Light Drizzle
12:12 AM 71.6 °F - 71.6 °F 100% 29.86 in 5.0 mi NE 2.3 mph - N/A   Scattered Clouds
12:17 AM 71.6 °F - 71.6 °F 100% 29.87 in 5.0 mi Calm Calm - N/A   Mostly Cloudy
12:22 AM 71.6 °F - 71.6 °F 100% 29.87 in 5.0 mi ENE 2.3 mph - N/A   Scattered Clouds
12:27 AM 71.6 °F - 71.6 °F 100% 29.86 in 5.0 mi ENE 3.5 mph - N/A   Partly Cloudy
12:33 AM 71.6 °F - 71.6 °F 100% 29.86 in 5.0 mi East 2.3 mph - N/A   Partly Cloudy
12:48 AM 71.6 °F - 71.6 °F 100% 29.86 in 4.0 mi North - - N/A   Partly Cloudy
12:58 AM 71.2 °F - 71.1 °F 99% 29.87 in 4.0 mi Calm Calm - 0.00 in   Partly Cloudy
1:19 AM 69.8 °F - 69.8 °F 100% 29.86 in 2.5 mi NNE 4.6 mph - N/A   Clear
1:25 AM 69.8 °F - 69.8 °F 100% 29.86 in 1.8 mi NNE 4.6 mph - N/A   Clear
1:29 AM 69.8 °F - 69.8 °F 100% 29.86 in 1.5 mi NE 3.5 mph - N/A   Clear
1:39 AM 69.8 °F - 68.0 °F 94% 29.86 in 1.8 mi NNE 3.5 mph - N/A   Clear
1:49 AM 68.0 °F - 68.0 °F 100% 29.86 in 2.0 mi North 5.8 mph - N/A   Clear
1:58 AM 68.9 °F - 68.7 °F 99% 29.87 in 2.5 mi NNE 6.9 mph - N/A   Clear
2:06 AM 69.8 °F - 69.8 °F 100% 29.86 in 3.0 mi NNE 10.4 mph - N/A   Clear
2:07 AM 69.8 °F - 69.8 °F 100% 29.86 in 3.0 mi NNE 10.4 mph - N/A   Partly Cloudy
2:16 AM 69.8 °F - 69.8 °F 100% 29.87 in 3.0 mi NNE 6.9 mph - N/A   Partly Cloudy
2:17 AM 69.8 °F - 69.8 °F 100% 29.87 in 2.5 mi NNE 6.9 mph - N/A   Partly Cloudy
2:30 AM 69.8 °F - 69.8 °F 100% 29.87 in 2.0 mi NNE 6.9 mph - N/A   Mostly Cloudy
2:56 AM 69.8 °F - 69.8 °F 100% 29.87 in 1.8 mi NNE 6.9 mph - N/A   Overcast
2:58 AM 69.8 °F - 69.8 °F 100% 29.88 in 2.0 mi NNE 5.8 mph - N/A   Overcast
3:05 AM 69.8 °F - 69.8 °F 100% 29.87 in 1.8 mi NNE 5.8 mph - N/A   Overcast
3:35 AM 68.0 °F - 68.0 °F 100% 29.87 in 1.8 mi NNE 4.6 mph - N/A   Scattered Clouds
3:46 AM 68.0 °F - 68.0 °F 100% 29.87 in 1.5 mi NNE 4.6 mph - N/A   Scattered Clouds
3:51 AM 68.0 °F - 68.0 °F 100% 29.87 in 1.2 mi NE 4.6 mph - N/A   Scattered Clouds
3:58 AM 67.6 °F - 67.3 °F 99% 29.89 in 1.2 mi NE 5.8 mph - N/A   Partly Cloudy
4:08 AM 68.0 °F - 68.0 °F 100% 29.88 in 1.5 mi NE 8.1 mph - N/A   Clear
4:13 AM 68.0 °F - 68.0 °F 100% 29.88 in 1.8 mi NE 5.8 mph - N/A   Clear
4:18 AM 68.0 °F - 68.0 °F 100% 29.88 in 2.0 mi NE 5.8 mph - N/A   Clear
4:22 AM 68.0 °F - 68.0 °F 100% 29.88 in 1.8 mi NE 5.8 mph - N/A   Clear
4:40 AM 68.0 °F - 68.0 °F 100% 29.89 in 1.8 mi NE 6.9 mph - N/A   Partly Cloudy
4:49 AM 68.0 °F - 68.0 °F 100% 29.89 in 2.0 mi NE 6.9 mph - N/A   Mostly Cloudy
4:58 AM 68.5 °F - 68.4 °F 99% 29.90 in 2.0 mi ENE 9.2 mph - N/A   Mostly Cloudy
5:06 AM 69.8 °F - 68.0 °F 94% 29.89 in 3.0 mi ENE 6.9 mph - N/A   Overcast
5:12 AM 69.8 °F - 69.8 °F 100% 29.90 in 3.0 mi ENE 8.1 mph - N/A   Overcast
5:25 AM 69.8 °F - 69.8 °F 100% 29.90 in 3.0 mi NE 6.9 mph - N/A   Overcast
5:29 AM 69.8 °F - 69.8 °F 100% 29.90 in 3.0 mi NE 4.6 mph - N/A   Overcast
5:37 AM 69.8 °F - 69.8 °F 100% 29.90 in 3.0 mi NE 5.8 mph - N/A   Overcast
5:58 AM 69.8 °F - 69.4 °F 99% 29.92 in 3.0 mi NE 4.6 mph - N/A   Overcast
6:08 AM 69.8 °F - 69.8 °F 100% 29.91 in 3.0 mi NE 5.8 mph - N/A   Overcast
6:20 AM 69.8 °F - 69.8 °F 100% 29.91 in 3.0 mi NE 4.6 mph - N/A   Overcast
6:21 AM 69.8 °F - 69.8 °F 100% 29.91 in 3.0 mi NE 5.8 mph - N/A   Overcast
6:22 AM 69.8 °F - 69.8 °F 100% 29.91 in 3.0 mi NE 4.6 mph - N/A   Overcast
6:23 AM 69.8 °F - 69.8 °F 100% 29.91 in 2.5 mi NE 4.6 mph - N/A   Overcast
6:36 AM 69.8 °F - 69.8 °F 100% 29.91 in 2.0 mi NE 4.6 mph - N/A   Overcast
6:54 AM 69.8 °F - 69.8 °F 100% 29.92 in 3.0 mi NE 5.8 mph - N/A   Overcast
6:58 AM 70.3 °F - 70.0 °F 99% 29.93 in 3.0 mi NNE 5.8 mph - N/A   Overcast
7:18 AM 71.6 °F - 69.8 °F 94% 29.92 in 4.0 mi NNE 5.8 mph - N/A   Overcast
7:24 AM 71.6 °F - 69.8 °F 94% 29.93 in 4.0 mi NNE 5.8 mph - N/A   Mostly Cloudy
7:35 AM 71.6 °F - 71.6 °F 100% 29.92 in 4.0 mi NNE 5.8 mph - N/A   Scattered Clouds
7:58 AM 71.6 °F - 71.4 °F 99% 29.94 in 4.0 mi NNE 6.9 mph - N/A   Scattered Clouds
8:02 AM 71.6 °F - 71.6 °F 100% 29.93 in 5.0 mi NNE 8.1 mph - N/A   Mostly Cloudy
8:08 AM 71.6 °F - 71.6 °F 100% 29.94 in 6.0 mi NE 6.9 mph - N/A   Mostly Cloudy
8:09 AM 71.6 °F - 71.6 °F 100% 29.94 in 6.0 mi NE 6.9 mph - N/A   Mostly Cloudy
8:48 AM 71.6 °F - 71.6 °F 100% 29.95 in 6.0 mi NE 10.4 mph - N/A   Overcast
8:50 AM 71.6 °F - 71.6 °F 100% 29.95 in 7.0 mi NE 10.4 mph - N/A   Mostly Cloudy
8:56 AM 71.6 °F - 69.8 °F 94% 29.95 in 8.0 mi NE 9.2 mph - N/A   Overcast
8:58 AM 72.1 °F - 70.7 °F 95% 29.96 in 9.0 mi NE 9.2 mph - N/A   Overcast
9:07 AM 71.6 °F - 69.8 °F 94% 29.95 in 9.0 mi NE 10.4 mph - N/A   Overcast
9:09 AM 71.6 °F - 69.8 °F 94% 29.95 in 10.0 mi NE 10.4 mph - N/A   Overcast
9:25 AM 71.6 °F - 69.8 °F 94% 29.96 in 10.0 mi NE 11.5 mph - N/A   Overcast
9:26 AM 71.6 °F - 69.8 °F 94% 29.96 in 10.0 mi ENE 11.5 mph - N/A   Overcast
9:28 AM 71.6 °F - 69.8 °F 94% 29.96 in 10.0 mi ENE 10.4 mph - N/A   Overcast
9:45 AM 71.6 °F - 69.8 °F 94% 29.97 in 10.0 mi ENE 9.2 mph - N/A   Overcast
9:48 AM 71.6 °F - 69.8 °F 94% 29.97 in 10.0 mi NE 8.1 mph - N/A   Overcast
9:49 AM 71.6 °F - 69.8 °F 94% 29.97 in 10.0 mi NE 10.4 mph - N/A   Overcast
9:53 AM 71.6 °F - 69.8 °F 94% 29.97 in 10.0 mi NE 10.4 mph - N/A   Overcast
9:54 AM 71.6 °F - 69.8 °F 94% 29.97 in 10.0 mi NE 11.5 mph - N/A   Overcast
9:58 AM 71.8 °F - 69.1 °F 91% 29.98 in 10.0 mi NE 10.4 mph - N/A   Overcast
10:04 AM 71.6 °F - 68.0 °F 88% 29.98 in 10.0 mi ENE 9.2 mph - N/A   Overcast
10:14 AM 71.6 °F - 68.0 °F 88% 29.98 in 10.0 mi ENE 10.4 mph - N/A   Overcast
10:21 AM 69.8 °F - 68.0 °F 94% 29.98 in 10.0 mi ENE 10.4 mph - N/A   Overcast
10:28 AM 69.8 °F - 68.0 °F 94% 29.98 in 10.0 mi ENE 10.4 mph - N/A Rain Light Rain
10:33 AM 69.8 °F - 68.0 °F 94% 29.98 in 10.0 mi ENE 10.4 mph - N/A   Overcast
10:36 AM 69.8 °F - 68.0 °F 94% 29.98 in 10.0 mi ENE 10.4 mph - N/A   Overcast
10:38 AM 69.8 °F - 68.0 °F 94% 29.98 in 10.0 mi NE 9.2 mph - N/A   Overcast
10:46 AM 71.6 °F - 68.0 °F 88% 29.98 in 10.0 mi NE 10.4 mph - N/A   Overcast
10:57 AM 71.6 °F - 68.0 °F 88% 29.98 in 10.0 mi NNE 10.4 mph - N/A   Overcast
10:58 AM 71.6 °F - 68.0 °F 88% 29.99 in 10.0 mi NNE 10.4 mph - 0.00 in   Overcast
11:38 AM 73.4 °F - 68.0 °F 83% 29.99 in 10.0 mi NE 10.4 mph - N/A   Mostly Cloudy
11:40 AM 73.4 °F - 68.0 °F 83% 29.99 in 10.0 mi NE 8.1 mph - N/A   Overcast
11:58 AM 74.7 °F - 68.0 °F 80% 29.99 in 10.0 mi ENE 9.2 mph - N/A   Mostly Cloudy
12:03 PM 75.2 °F - 68.0 °F 78% 29.99 in 10.0 mi NNE 10.4 mph - N/A   Mostly Cloudy
12:08 PM 75.2 °F - 68.0 °F 78% 29.99 in 10.0 mi NE 10.4 mph - N/A   Mostly Cloudy
12:12 PM 75.2 °F - 68.0 °F 78% 29.99 in 10.0 mi NE 12.7 mph - N/A   Mostly Cloudy
12:23 PM 75.2 °F - 68.0 °F 78% 29.99 in 10.0 mi ENE 8.1 mph - N/A   Mostly Cloudy
12:27 PM 75.2 °F - 68.0 °F 78% 29.99 in 10.0 mi NE 8.1 mph - N/A   Mostly Cloudy
12:58 PM 75.9 °F - 67.6 °F 75% 30.00 in 10.0 mi ENE 10.4 mph - N/A   Overcast
12:59 PM 75.2 °F - 68.0 °F 78% 29.99 in 9.0 mi East 10.4 mph - N/A   Overcast
1:05 PM 75.2 °F - 66.2 °F 73% 29.99 in 9.0 mi ENE 12.7 mph - N/A   Mostly Cloudy
1:58 PM 77.4 °F - 67.5 °F 71% 30.00 in 10.0 mi NNE 8.1 mph - N/A   Partly Cloudy
2:58 PM 79.3 °F - 66.9 °F 66% 29.99 in 10.0 mi North 8.1 mph - N/A   Scattered Clouds
3:08 PM 80.6 °F 82.7 °F 66.2 °F 61% 29.97 in 10.0 mi NE 11.5 mph 18.4 mph N/A   Scattered Clouds
3:58 PM 80.6 °F 83.1 °F 67.5 °F 64% 29.98 in 10.0 mi East 4.6 mph - N/A   Partly Cloudy
3:59 PM 80.6 °F 82.7 °F 66.2 °F 61% 29.97 in 10.0 mi ENE 4.6 mph - N/A Rain Light Rain
4:07 PM 80.6 °F 82.7 °F 66.2 °F 61% 29.97 in 10.0 mi NE 8.1 mph - N/A   Clear
4:51 PM 78.8 °F - 68.0 °F 69% 29.97 in 10.0 mi ESE 6.9 mph - N/A Rain Light Rain
4:58 PM 78.3 °F - 67.6 °F 70% 29.98 in 10.0 mi ESE 8.1 mph - 0.00 in Rain Light Rain
5:01 PM 77.0 °F - 68.0 °F 74% 29.97 in 10.0 mi East 8.1 mph - N/A   Mostly Cloudy
5:06 PM 77.0 °F - 68.0 °F 74% 29.98 in 10.0 mi East 6.9 mph - N/A   Mostly Cloudy
5:58 PM 76.5 °F - 66.7 °F 72% 29.98 in 10.0 mi East 9.2 mph - 0.00 in   Partly Cloudy
6:58 PM 73.0 °F - 65.5 °F 77% 30.00 in 10.0 mi ESE 8.1 mph - N/A   Clear
7:58 PM 70.0 °F - 64.9 °F 84% 30.01 in 10.0 mi ESE 5.8 mph - N/A   Clear
8:41 PM 68.0 °F - 64.4 °F 88% 30.01 in 10.0 mi ESE 2.3 mph - N/A Rain Light Rain
8:42 PM 68.0 °F - 64.4 °F 88% 30.01 in 10.0 mi ESE 2.3 mph - N/A   Clear
8:43 PM 68.0 °F - 64.4 °F 88% 30.01 in 10.0 mi ESE 3.5 mph - N/A Rain Light Rain
8:51 PM 69.8 °F - 64.4 °F 83% 30.01 in 10.0 mi ESE 2.3 mph - N/A   Clear
8:58 PM 68.9 °F - 64.4 °F 86% 30.02 in 10.0 mi SE 3.5 mph - 0.00 in   Clear
9:53 PM 68.0 °F - 64.4 °F 88% 30.02 in 10.0 mi ESE 4.6 mph - N/A Rain Light Rain
9:58 PM 67.5 °F - 64.6 °F 90% 30.03 in 10.0 mi ESE 4.6 mph - 0.00 in Rain Light Rain
9:59 PM 68.0 °F - 64.4 °F 88% 30.01 in 10.0 mi ESE 4.6 mph - N/A   Mostly Cloudy
10:58 PM 67.5 °F - 65.3 °F 93% 30.04 in 10.0 mi SSW 3.5 mph - 0.00 in   Scattered Clouds
11:05 PM 68.0 °F - 66.2 °F 94% 30.03 in 10.0 mi South 2.3 mph - N/A   Mostly Cloudy
11:07 PM 68.0 °F - 66.2 °F 94% 30.03 in 10.0 mi South 2.3 mph - N/A   Mostly Cloudy
11:32 PM 66.2 °F - 66.2 °F 100% 30.02 in 10.0 mi SSE 3.5 mph - N/A   Overcast
11:58 PM 66.2 °F - 65.1 °F 96% 30.02 in 10.0 mi SE 3.5 mph - N/A   Clear